Location: Pebble Beach Sunset Acres
(33.0837°N, 96.4508°W)
Time: 01:17:24
(UTC+00:00)

DELTA 2 R/B (1) - Pass Details

Date: 02 July 2022
Orbit: 790 x 803 km, 39.6° (Epoch: 15 August)

Event Time Altitude Azimuth Distance (km) Brightness Sun altitude
Rises 02:48:17 0° 293° (WNW) 3,293 8.4 -13.0°
Reaches altitude 10° 02:50:47 10° 292° (WNW) 2,364 7.3 -13.4°
Maximum altitude 02:56:21 78° 207° (SSW) 816 3.6 -14.3°
Enters shadow 03:00:01 22° 123° (ESE) 1,669 4.6 -14.8°
